Location: Poughquag
(41.6090°N, 73.6820°W)
Time: 03:40:18
(UTC-04:00)

S-56A Canister/Altair - Pass Details

Date: 03 June 2020
Orbit: 633 x 2499 km, 38.9° (Epoch: 06 July)

Event Time Altitude Azimuth Distance (km) Brightness Sun altitude
Rises 09:41:36 0° 280° (W) 4,125 10.8 45.8°
Reaches altitude 10° 09:44:11 10° 274° (W) 3,380 10.5 46.3°
Maximum altitude 09:52:28 45° 205° (SSW) 2,255 10.3 47.8°
Drops below altitude 10° 10:04:18 10° 139° (SE) 4,777 12.3 49.9°
Sets 10:08:43 0° 134° (SE) 5,965 12.6 50.7°
